ホームズ彗星

17P/Holmes (2021)

English version
Home page
Updated on January 12, 2021

---------------------------------------------------------------------

・ プロフィール

・ 写真集

・ 軌道要素

Epoch 2021 Mar. 7.0 TT = JDT 2459280.5
T 2021 Feb. 19.82702 TT                                 MPCW
q   2.0806867            (2000.0)            P               Q
n   0.14215191     Peri.   24.46753     +0.97547069     +0.12754573
a   3.6360869      Node   326.62033     -0.21320617     +0.75022190
e   0.4277676      Incl.   19.03199     +0.05477281     +0.64876744
P   6.93
From 4748 observations 2000 Aug. 9-2019 May 9, mean residual 0".5.
     Nongravitational parameters A1 = +0.41, A2 = +0.1487.

・ 星図

・ 光度変化

        m1 = 11.5 + 5 logΔ + 12.0 log r  [    ,-240]  (              〜2020年 6月24日)
        m1 =  1.5 + 5 logΔ + 35   log r  [-240, 170]  (2020年 6月24日〜2021年 8月 8日)
        m1 =  9.3 + 5 logΔ + 15.0 log r  [ 170,    ]  (2021年 8月 8日〜              )

---------------------------------------------------------------------

軌道要素はM.P.E.C. 2019-J142に掲載されたものです。
星図はステラナビゲータ Ver.8 (アストロアーツ) で作成したものです。
光度グラフはComet for Windowsで作成したものです。

---------------------------------------------------------------------

Copyright(C) Seiichi Yoshida (comet@aerith.net). All rights reserved.